| time (UTC) | temp F | wind direction | speed knots | gust knots | rain 1hr in | rain 24hr in | rain mn in | humidity % | barometer mb |
| 20260509230732 | 68 | 226 | 3.5 | 8.7 | 0.00 | 0.40 | 0.23 | 57 | 1003.0 |
| 20260509225730 | 68 | 220 | 3.5 | 11.3 | 0.00 | 0.40 | 0.23 | 56 | 1003.0 |
| 20260509225233 | 68 | 230 | 4.3 | 11.3 | 0.00 | 0.40 | 0.23 | 56 | 1003.1 |
| 20260509224732 | 68 | 228 | 4.3 | 10.4 | 0.00 | 0.40 | 0.23 | 56 | 1002.9 |
| 20260509224232 | 68 | 226 | 5.2 | 13.9 | 0.00 | 0.40 | 0.23 | 55 | 1002.7 |
| 20260509223731 | 68 | 226 | 5.2 | 13.9 | 0.00 | 0.40 | 0.23 | 55 | 1002.7 |
| 20260509223231 | 68 | 219 | 4.3 | 11.3 | 0.00 | 0.41 | 0.23 | 55 | 1002.7 |
| 20260509222730 | 68 | 221 | 4.3 | 11.3 | 0.00 | 0.41 | 0.23 | 56 | 1002.8 |
| 20260509222231 | 68 | 222 | 4.3 | 8.7 | 0.00 | 0.41 | 0.23 | 56 | 1002.8 |
| 20260509221729 | 68 | 216 | 4.3 | 10.4 | 0.00 | 0.41 | 0.23 | 55 | 1002.9 |
| 20260509220733 | 68 | 218 | 2.6 | 13.0 | 0.00 | 0.41 | 0.23 | 55 | 1002.6 |
| 20260509220232 | 68 | 214 | 2.6 | 7.8 | 0.00 | 0.41 | 0.23 | 57 | 1002.7 |
| 20260509214730 | 68 | 217 | 5.2 | 13.0 | 0.00 | 0.43 | 0.23 | 53 | 1002.8 |
| 20260509213233 | 68 | 208 | 4.3 | 8.7 | 0.00 | 0.43 | 0.23 | 54 | 1002.7 |
| 20260509212231 | 68 | 211 | 4.3 | 13.9 | 0.00 | 0.43 | 0.23 | 55 | 1002.9 |
| 20260509211731 | 68 | 218 | 5.2 | 11.3 | 0.00 | 0.43 | 0.23 | 55 | 1002.9 |
| 20260509210730 | 69 | 216 | 4.3 | 12.2 | 0.00 | 0.43 | 0.23 | 57 | 1003.1 |
| 20260509210233 | 69 | 232 | 5.2 | 13.0 | 0.00 | 0.43 | 0.23 | 57 | 1003.2 |
| 20260509205733 | 69 | 220 | 4.3 | 13.9 | 0.00 | 0.43 | 0.23 | 56 | 1003.3 |
| 20260509205232 | 68 | 205 | 4.3 | 13.9 | 0.00 | 0.43 | 0.23 | 57 | 1003.3 |
| 20260509204732 | 68 | 215 | 3.5 | 11.3 | 0.00 | 0.43 | 0.23 | 59 | 1003.4 |
| 20260509204231 | 68 | 217 | 4.3 | 11.3 | 0.00 | 0.43 | 0.23 | 58 | 1003.5 |
| 20260509203730 | 68 | 211 | 4.3 | 13.0 | 0.00 | 0.43 | 0.23 | 58 | 1003.6 |
| 20260509202730 | 69 | 207 | 4.3 | 11.3 | 0.00 | 0.44 | 0.23 | 59 | 1003.8 |
| 20260509202232 | 69 | 216 | 5.2 | 11.3 | 0.00 | 0.46 | 0.23 | 56 | 1003.7 |
| 20260509201732 | 70 | 235 | 3.5 | 9.6 | 0.00 | 0.46 | 0.23 | 60 | 1003.8 |
| 20260509200731 | 69 | 227 | 4.3 | 11.3 | 0.00 | 0.46 | 0.23 | 57 | 1004.0 |
| 20260509200231 | 69 | 223 | 3.5 | 11.3 | 0.00 | 0.46 | 0.23 | 56 | 1004.0 |
| 20260509195730 | 69 | 225 | 4.3 | 9.6 | 0.00 | 0.46 | 0.23 | 58 | 1004.0 |
| 20260509194730 | 69 | 230 | 4.3 | 11.3 | 0.00 | 0.46 | 0.23 | 57 | 1004.1 |
| 20260509194232 | 69 | 226 | 4.3 | 9.6 | 0.00 | 0.46 | 0.23 | 58 | 1004.2 |
| 20260509193732 | 69 | 229 | 5.2 | 10.4 | 0.00 | 0.46 | 0.23 | 59 | 1004.2 |
| 20260509193232 | 69 | 230 | 4.3 | 10.4 | 0.00 | 0.46 | 0.23 | 58 | 1004.3 |
| 20260509192731 | 69 | 228 | 3.5 | 9.6 | 0.00 | 0.46 | 0.23 | 58 | 1004.4 |
| 20260509192231 | 68 | 226 | 3.5 | 9.6 | 0.00 | 0.46 | 0.23 | 58 | 1004.6 |
| 20260509191230 | 68 | 229 | 5.2 | 14.8 | 0.00 | 0.46 | 0.23 | 56 | 1004.8 |
| 20260509190729 | 69 | 235 | 5.2 | 14.8 | 0.00 | 0.46 | 0.23 | 57 | 1004.8 |
| 20260509185733 | 69 | 235 | 3.5 | 9.6 | 0.00 | 0.46 | 0.23 | 59 | 1004.8 |
| 20260509185231 | 68 | 239 | 4.3 | 11.3 | 0.00 | 0.46 | 0.23 | 57 | 1004.8 |
| 20260509184731 | 68 | 237 | 4.3 | 11.3 | 0.00 | 0.46 | 0.23 | 58 | 1004.9 |
| 20260509184232 | 68 | 226 | 3.5 | 10.4 | 0.00 | 0.46 | 0.23 | 60 | 1004.8 |
| 20260509182729 | 69 | 228 | 4.3 | 10.4 | 0.00 | 0.46 | 0.23 | 58 | 1005.0 |
| 20260509182233 | 69 | 223 | 3.5 | 12.2 | 0.00 | 0.46 | 0.23 | 60 | 1004.9 |
| 20260509181732 | 69 | 219 | 4.3 | 12.2 | 0.00 | 0.46 | 0.23 | 57 | 1005.0 |
| 20260509181232 | 70 | 217 | 4.3 | 12.2 | 0.00 | 0.46 | 0.23 | 57 | 1005.0 |
| 20260509180731 | 70 | 217 | 2.6 | 6.1 | 0.00 | 0.46 | 0.23 | 60 | 1004.9 |
| 20260509180231 | 69 | 208 | 3.5 | 8.7 | 0.00 | 0.46 | 0.23 | 61 | 1004.9 |
| 20260509175230 | 69 | 216 | 4.3 | 9.6 | 0.00 | 0.47 | 0.23 | 59 | 1005.1 |
| 20260509174733 | 70 | 229 | 4.3 | 10.4 | 0.00 | 0.47 | 0.23 | 59 | 1005.1 |
| 20260509174232 | 69 | 225 | 4.3 | 10.4 | 0.00 | 0.47 | 0.23 | 59 | 1005.2 |
| 20260509172230 | 69 | 188 | 2.6 | 8.7 | 0.00 | 0.49 | 0.23 | 60 | 1004.9 |
| 20260509171233 | 68 | 230 | 3.5 | 7.8 | 0.00 | 0.49 | 0.23 | 66 | 1005.0 |
| 20260509170231 | 67 | 226 | 2.6 | 7.8 | 0.00 | 0.49 | 0.23 | 64 | 1004.8 |
| 20260509165730 | 67 | 233 | 2.6 | 7.0 | 0.00 | 0.49 | 0.23 | 65 | 1005.0 |
| 20260509165230 | 66 | 224 | 3.5 | 7.0 | 0.00 | 0.49 | 0.23 | 66 | 1005.1 |
| 20260509164729 | 66 | 224 | 3.5 | 8.7 | 0.00 | 0.49 | 0.23 | 68 | 1005.3 |
| 20260509164233 | 65 | 229 | 3.5 | 8.7 | 0.00 | 0.49 | 0.23 | 65 | 1005.4 |
| 20260509163732 | 65 | 244 | 2.6 | 7.0 | 0.00 | 0.49 | 0.23 | 67 | 1005.5 |
| 20260509162731 | 65 | 231 | 3.5 | 8.7 | 0.00 | 0.49 | 0.23 | 68 | 1005.6 |
| 20260509162231 | 65 | 228 | 2.6 | 7.0 | 0.00 | 0.49 | 0.23 | 70 | 1005.5 |
| 20260509161230 | 64 | 221 | 3.5 | 8.7 | 0.00 | 0.49 | 0.23 | 71 | 1005.4 |
| 20260509160729 | 63 | 217 | 3.5 | 7.0 | 0.00 | 0.49 | 0.23 | 77 | 1005.5 |
| 20260509155232 | 61 | 249 | 2.6 | 7.8 | 0.00 | 0.49 | 0.23 | 84 | 1005.5 |
| 20260509154231 | 59 | 251 | 2.6 | 7.8 | 0.00 | 0.49 | 0.23 | 90 | 1005.6 |
| 20260509153230 | 59 | 270 | 2.6 | 7.8 | 0.00 | 0.49 | 0.23 | 92 | 1005.4 |
| 20260509152729 | 58 | 249 | 2.6 | 7.8 | 0.00 | 0.49 | 0.23 | 93 | 1005.4 |
| 20260509152232 | 58 | 227 | 1.7 | 7.0 | 0.00 | 0.49 | 0.23 | 93 | 1005.4 |
| 20260509151732 | 57 | 234 | 0.9 | 4.3 | 0.00 | 0.49 | 0.23 | 94 | 1005.5 |
| 20260509151231 | 57 | 233 | 1.7 | 7.0 | 0.00 | 0.49 | 0.23 | 94 | 1005.4 |
| 20260509150731 | 57 | 240 | 1.7 | 7.0 | 0.00 | 0.49 | 0.23 | 93 | 1005.5 |
| 20260509150230 | 57 | 246 | 2.6 | 7.8 | 0.00 | 0.49 | 0.23 | 94 | 1005.4 |
| 20260509145730 | 57 | 241 | 2.6 | 7.8 | 0.00 | 0.49 | 0.23 | 94 | 1005.4 |
| 20260509145233 | 57 | 232 | 2.6 | 5.2 | 0.00 | 0.49 | 0.23 | 94 | 1005.3 |
| 20260509144732 | 57 | 231 | 1.7 | 5.2 | 0.00 | 0.49 | 0.23 | 94 | 1005.4 |
| 20260509144232 | 56 | 225 | 1.7 | 5.2 | 0.00 | 0.49 | 0.23 | 94 | 1005.4 |